Location: ???????????
(54.6970°N, 39.1477°E)
Time: 07:54:40
(UTC+00:00)

Meteor 1-21 - Pass Details

Date: 19 May 2025
Orbit: 845 x 885 km, 81.2° (Epoch: 23 June)

Event Time Altitude Azimuth Distance (km) Brightness Sun altitude
Exits shadow 23:24:56 14° 202° (SSW) 2,214 5.7 -10.7°
Maximum altitude 23:29:51 73° 286° (WNW) 890 4.3 -10.3°
Drops below altitude 10° 23:35:31 10° 12° (NNE) 2,499 7.9 -9.9°
Sets 23:37:59 0° 14° (NNE) 3,445 9.0 -9.7°
